Location: Newark
(43.4306°N, 0.3089°E)
Time: 23:53:28
(UTC+00:00)

A-11 Canister half - Pass Details

Date: 30 August 2019
Orbit: 1514 x 1686 km, 47.2° (Epoch: 23 October)

Event Time Altitude Azimuth Distance (km) Brightness Sun altitude
Rises 23:16:15 0° 293° (WNW) 4,787 12.0 -36.8°
Reaches altitude 10° 23:19:52 10° 283° (WNW) 3,825 11.3 -37.0°
Enters shadow 23:25:04 25° 253° (WSW) 2,855 10.3 -37.2°
